GOKTURK 1A (41875 NORAD) Tracking and Keplerian Element Data

This shows tracking and keplerian element data for the satellite.

Feedback or suggestion? Click here.




ElementValue
Catalog41875
NameGOKTURK 1A
Epoch Orbit13189
Epoch Day146.83011458
Epoch Year2019
RAAN41.7276
Inclination98.1363
Eccentricity0.0001313
Argument of Perigee79.7783
Mean Anonmoly280.3571
Mean Motion14.6277356
Decay Rate3.1E-07
L11 41875U 16073A 19146.83011458 .00000031 00000-0 15168-4 0 9992
L22 41875 98.1363 41.7276 0001313 79.7783 280.3571 14.62773560131892

Live tracking and technical data element details for GOKTURK 1A (NORAD 41875). GOKTURK 1A can be tracked NOW for your location showing map with azimuth and elevation plus other details from your city location.

Track the satellite on the map from your city or location and see movement details for azimuth, elevation, latitude, longitude, range, height, and movement on the map or in text.







IsCatalogInMostPopularTable: catalog: 41875, numindb: 209
Update: records affected: 1



GetName: 41875 GOKTURK 1A

Hit Count: updated at: Mon, 27 May 2019 04:35:48 GMT